This is the latest recevied weather packets stored in our database for station/object N0MR. If no packets are shown the sender has not sent any weather packets the latest 10 day(s).
| Time | Temp. | Humidity | Pressure | Rain* | Wind** | Luminosity | Snow |
|---|---|---|---|---|---|---|---|
| 1777960907 | 0° C | 79% | 1002.5 hPa | 0 mm | - | - | - |
| 1777960309 | 0.56° C | 78% | 1002.4 hPa | 0 mm | - | - | - |
| 1777959708 | 0.56° C | 78% | 1002.4 hPa | 0 mm | - | - | - |
| 1777959108 | 0.56° C | 78% | 1002.3 hPa | 0 mm | - | - | - |
| 1777958507 | 0.56° C | 78% | 1002.3 hPa | 0 mm | - | - | - |
| 1777957908 | 1.11° C | 79% | 1002.1 hPa | 0 mm | - | - | - |
| 1777957308 | 1.11° C | 79% | 1002.1 hPa | 0 mm | - | - | - |
| 1777956709 | 1.11° C | 77% | 1002 hPa | 0 mm | - | - | - |
| 1777956108 | 1.11° C | 77% | 1002 hPa | 0 mm | - | - | - |
| 1777955509 | 1.67° C | 76% | 1002 hPa | 0 mm | - | - | - |
| 1777954908 | 1.67° C | 76% | 1002 hPa | 0 mm | - | - | - |
| 1777954309 | 1.67° C | 76% | 1001.7 hPa | 0 mm | - | - | - |
| 1777953710 | 1.67° C | 76% | 1001.7 hPa | 0 mm | - | - | - |
| 1777953109 | 1.67° C | 75% | 1001.8 hPa | 0 mm | - | - | - |
| 1777952509 | 1.67° C | 75% | 1001.8 hPa | 0 mm | - | - | - |
| 1777951910 | 2.22° C | 74% | 1001.7 hPa | 0 mm | - | - | - |
| 1777951308 | 2.22° C | 74% | 1001.7 hPa | 0 mm | - | - | - |
| 1777950710 | 2.22° C | 73% | 1001.4 hPa | 0 mm | - | - | - |
| 1777950109 | 2.22° C | 73% | 1001.4 hPa | 0 mm | - | - | - |
| 1777949508 | 2.78° C | 71% | 1001.2 hPa | 0 mm | - | - | - |
| 1777948909 | 2.78° C | 71% | 1001 hPa | 0 mm | - | - | - |
| 1777948310 | 2.78° C | 71% | 1001 hPa | 0 mm | - | - | - |
| 1777947710 | 3.33° C | 70% | 1000.8 hPa | 0 mm | - | - | - |
| 1777947109 | 3.33° C | 70% | 1000.8 hPa | 0 mm | - | - | - |
| 1777946509 | 3.89° C | 65% | 1000.6 hPa | 0 mm | - | - | - |
* Rain latest hour (hover to see other rain measurements)
** Current wind speed in m/s (hover to see current wind gust speed)